Weather History for Lihue, HI

Change the Weather History Date:

Friday, October 18, 2013

  Actual Average Record
Temperature  
Mean Temperature 75 °F 78 °F  
Max Temperature 81 °F 83 °F 87 °F (1957)
Min Temperature 68 °F 73 °F 64 °F (1961)
Degree Days  
Heating Degree Days 0 0  
Month to date heating degree days 0 0  
Since 1 July heating degree days 0 0  
Cooling Degree Days 10 13  
Month to date cooling degree days 232 245  
Year to date cooling degree days 2988 3204  
Growing Degree Days 24 (Base 50)    
Moisture  
Dew Point 68 °F    
Average Humidity 80    
Maximum Humidity 90    
Minimum Humidity 69    
Precipitation  
Precipitation 0.00 in 0.13 in 1.37 in (1962)
Month to date precipitation 7.41 1.99  
Year to date precipitation 26.98 25.56  
Snow  
Snow 0.00 in - - ()
Month to date snowfall 0.0  
Since 1 July snowfall 0.0  
Since 1 September snowfall 0.0  
Snow Depth 0.00 in    
Sea Level Pressure  
Sea Level Pressure 29.94 in    
Wind  
Wind Speed 7 mph (West)    
Max Wind Speed 10 mph    
Max Gust Speed 12 mph    
Visibility 10 miles    
Events      
T = Trace of Precipitation, MM = Missing Value Source: NWS Daily Summary

Daily Weather History Graph

Daily Weather History Graph

Search for Another Location

Airport:

Trip Planner

Search our weather history database for the weather conditions in past years. The results will help you decide how hot, cold, wet, or windy it might be!

Date:

Astronomy

Oct. 18, 2013 Rise Set
Actual Time 6:34 AM HST 6:09 PM HST
Civil Twilight 6:12 AM HST 6:32 PM HST
Nautical Twilight 5:46 AM HST 6:58 PM HST
Astronomical Twilight 5:20 AM HST 7:24 PM HST
Moon 6:10 PM HST (10/18) 6:21 AM HST (10/18)
Length of Visible Light 12h 19m
Length of Day
11h 34m
Full, 100% of the Moon is Illuminated
Oct 18
Full
Oct 18
Full
Oct 26
Last Quarter
Nov 3
New
Nov 9
First Quarter

Hourly Weather History & Observations

Time (HST) Temp. Heat Index Dew Point Humidity Pressure Visibility Wind Dir Wind Speed Gust Speed Precip Events Conditions
12:53 AM 70.0 °F - 66.9 °F 90% 29.97 in 10.0 mi West 8.1 mph - N/A   Clear
1:53 AM 70.0 °F - 64.9 °F 84% 29.96 in 10.0 mi West 8.1 mph - N/A   Clear
2:53 AM 69.1 °F - 64.9 °F 87% 29.95 in 10.0 mi West 9.2 mph - N/A   Clear
3:53 AM 69.1 °F - 64.0 °F 84% 29.94 in 10.0 mi West 9.2 mph - N/A   Clear
4:53 AM 69.1 °F - 64.0 °F 84% 29.93 in 10.0 mi West 5.8 mph - N/A   Clear
5:15 AM 69.8 °F - 64.4 °F 83% 29.94 in 10.0 mi West 6.9 mph - N/A   Partly Cloudy
5:53 AM 68.0 °F - 63.0 °F 84% 29.94 in 10.0 mi West 9.2 mph - N/A   Partly Cloudy
6:53 AM 68.0 °F - 63.0 °F 84% 29.95 in 10.0 mi West 8.1 mph - N/A   Clear
7:53 AM 71.1 °F - 64.9 °F 81% 29.97 in 10.0 mi West 4.6 mph - N/A   Clear
8:53 AM 78.1 °F - 68.0 °F 71% 29.99 in 10.0 mi West 3.5 mph - N/A   Clear
9:53 AM 80.1 °F 82.9 °F 69.1 °F 69% 29.99 in 10.0 mi ENE 5.8 mph - N/A   Clear
10:53 AM 80.1 °F 83.2 °F 70.0 °F 71% 29.98 in 10.0 mi East 6.9 mph - N/A   Clear
11:53 AM 81.0 °F 84.9 °F 71.1 °F 72% 29.96 in 10.0 mi ENE 6.9 mph - N/A   Clear
12:53 PM 81.0 °F 84.9 °F 71.1 °F 72% 29.94 in 10.0 mi East 5.8 mph - N/A   Clear
1:53 PM 80.1 °F 83.2 °F 70.0 °F 71% 29.91 in 10.0 mi ESE 6.9 mph - N/A   Overcast
2:53 PM 81.0 °F 84.4 °F 70.0 °F 69% 29.90 in 10.0 mi East 5.8 mph - N/A   Partly Cloudy
3:53 PM 80.1 °F 83.6 °F 71.1 °F 74% 29.89 in 10.0 mi ESE 8.1 mph - N/A   Partly Cloudy
4:53 PM 79.0 °F - 70.0 °F 74% 29.89 in 10.0 mi SSE 6.9 mph - N/A   Scattered Clouds
5:53 PM 77.0 °F - 69.1 °F 76% 29.90 in 10.0 mi SSW 4.6 mph - N/A   Clear
6:53 PM 77.0 °F - 69.1 °F 76% 29.91 in 10.0 mi Calm Calm - N/A   Partly Cloudy
7:53 PM 73.9 °F - 70.0 °F 87% 29.92 in 10.0 mi WNW 4.6 mph - N/A   Clear
8:53 PM 73.0 °F - 69.1 °F 87% 29.93 in 10.0 mi West 4.6 mph - N/A   Clear
9:53 PM 72.0 °F - 68.0 °F 87% 29.93 in - West 5.8 mph - N/A   Clear
10:53 PM 71.1 °F - 66.9 °F 87% 29.92 in 10.0 mi West 6.9 mph - N/A   Clear
11:53 PM 70.0 °F - 66.9 °F 90% 29.91 in 10.0 mi West 6.9 mph - N/A   Clear